Home   Weather   Aurillac   Past weeks
Flag for France

Past Weather in Aurillac, Auvergne-Rhône-Alpes, France — October 2017

Now
56 °F

Overcast.


Feels Like: 57 °F
Forecast: 57 / 51 °F
Wind: 3 mph from Southeast

Location: Aurillac

Current Time: Oct 17, 2019 at 9:23:04 pm

Latest Report: Oct 17, 2019 at 8:00 pm


Visibility: 12 mi

Pressure: 29.98 "Hg (27.83 "Hg at 627m altitude)

Humidity: 88%

Dew Point: 53 °F

Location of AurillacLocation

October 2017 Weather in Aurillac — Graph

°F

High & Low Weather Summary for October 2017

 TemperatureHumidityPressure
High76 °F (Oct 26, 3:00 pm)100% (Oct 1, 1:00 am)30.50 "Hg (Oct 1, 1:00 am)
Low27 °F (Oct 31, 7:00 am)25% (Oct 14, 5:00 pm)29.80 "Hg (Oct 19, 1:00 am)
Average53 °F81%30.23 "Hg
* Reported Oct 1 12:00 am — Oct 31 11:00 pm, Aurillac. Weather by CustomWeather, © 2019

Note: Actual official high and low records may vary slightly from our data, if they occured in-between our weather recording intervals... More about our weather records

Advertising

Aurillac Weather History for October 1, 2017

Scroll right to see more
 ConditionsComfort  
Time TempWeatherWind HumidityBarometerVisibility
12:00 am
Sun, Oct 1
49 °FCool.3 mph98%30.22 "Hg5 mi
1:00 am49 °FLow clouds.No wind100%30.21 "Hg5 mi
2:00 am48 °FLow clouds.1 mph98%30.21 "Hg2 mi
3:00 am48 °FLow clouds.2 mph99%30.21 "Hg2 mi
4:00 am47 °FLow clouds.3 mph99%30.20 "Hg1 mi
5:00 am46 °FLow clouds.2 mph99%30.22 "Hg3 mi
6:00 am44 °FQuite cool.No wind98%30.23 "Hg12 mi
7:00 am45 °FOvercast.No wind97%30.24 "Hg8 mi
8:00 am45 °FOvercast.2 mph98%30.23 "Hg4 mi
9:00 am47 °FOvercast.2 mph97%30.23 "Hg12 mi
10:00 am51 °FOvercast.2 mph85%30.22 "Hg37 mi
11:00 am55 °FOvercast.2 mph72%30.21 "Hg37 mi
12:00 pm55 °FOvercast.3 mph77%30.20 "Hg37 mi
1:00 pm58 °FOvercast.5 mph71%30.19 "Hg34 mi
2:00 pm58 °FOvercast.3 mph60%30.19 "Hg37 mi
3:00 pm59 °FOvercast.2 mph65%30.18 "Hg34 mi
4:00 pm58 °FOvercast.3 mph69%30.18 "Hg37 mi
5:00 pm58 °FOvercast.5 mph80%30.17 "Hg34 mi
6:00 pm57 °FOvercast.3 mph82%30.17 "Hg7 mi
7:00 pm53 °FLight rain. Low clouds.6 mph94%30.20 "Hg2 mi
8:00 pm53 °FDrizzle. Low clouds.2 mph97%30.21 "Hg1 mi
9:00 pm52 °FDrizzle. Low clouds.No wind97%30.22 "Hg2 mi
10:00 pm52 °FLow clouds.1 mph98%30.23 "Hg1 mi
11:00 pm52 °FDrizzle. Overcast.1 mph99%30.24 "Hg1 mi
Weather by CustomWeather, © 2019

See weather overview